FDX16 LFPG-VIDP

Flight info

Callsign FDX16
Flight time 7h 40m
Altitude 35000
Route LANVI DCT BEGAR DCT TRA DCT GAMSA DCT GEDSO DCT GIMIX DCT RISTU DCT ETIDA Q7 IVGOT L744 UDROS UM859 KARDE/N0486F370 UN644 ROLIN DCT TETRO DCT BARAD M747 SUBUT T923 ERLEV M11 RODAR A909 TUNEK B143 KRS A240 INRAK B449 DOLOS B475 NINOP A909 LEMOD N644 PAGMA/N0480F390 N644 DI A466 ELKUX ELKUX6F
Aircraft MD11/H-SDE1E2E3FGHIJ2J3J4J5M1RWXY/LB1D1

Departure

Time 2026-05-04 17:15
Airport Charles de Gaulle International Airport (LFPG)

Arrival

Time 2026-05-05 00:56
Airport Indira Gandhi International Airport (VIDP)
Time Latitude Longitude Altitude Speed Heading
2026-05-04 16:48 49.01721 2.50705 351 ft 0 kts 356°
2026-05-04 17:07 49.01714 2.50706 351 ft 2 kts 353°
2026-05-04 17:07 49.01704 2.50707 351 ft 2 kts 354°
2026-05-04 17:07 49.01684 2.50710 351 ft 2 kts 356°
2026-05-04 17:07 49.01669 2.50710 350 ft 2 kts 12°
2026-05-04 17:08 49.01655 2.50703 350 ft 2 kts 26°
2026-05-04 17:08 49.01632 2.50675 350 ft 2 kts 53°
2026-05-04 17:08 49.01624 2.50656 349 ft 2 kts 67°
2026-05-04 17:09 49.01620 2.50635 349 ft 2 kts 81°
2026-05-04 17:09 49.01619 2.50624 349 ft 1 kts 87°
2026-05-04 17:09 49.01619 2.50622 349 ft 0 kts 86°
2026-05-04 17:10 49.01620 2.50658 349 ft 3 kts 86°
2026-05-04 17:11 49.01623 2.50706 349 ft 5 kts 86°
2026-05-04 17:11 49.01626 2.50785 349 ft 9 kts 86°
2026-05-04 17:11 49.01638 2.51024 354 ft 12 kts 85°
2026-05-04 17:12 49.01646 2.51167 356 ft 14 kts 85°
2026-05-04 17:12 49.01810 2.51262 364 ft 16 kts 356°
2026-05-04 17:13 49.02068 2.51420 371 ft 6 kts 85°
2026-05-04 17:14 49.02069 2.51441 371 ft 0 kts 86°
2026-05-04 17:14 49.02076 2.51591 373 ft 50 kts 86°
2026-05-04 17:14 49.02208 2.53982 381 ft 169 kts 87°
2026-05-04 17:15 49.02301 2.55986 449 ft 205 kts 86°
2026-05-04 17:15 49.02549 2.60209 1773 ft 198 kts 85°
2026-05-04 17:16 49.02874 2.64200 3197 ft 193 kts 82°
2026-05-04 17:16 49.03571 2.71178 3970 ft 269 kts 81°
2026-05-04 17:17 49.03854 2.73870 5244 ft 258 kts 81°
2026-05-04 17:17 49.04782 2.82240 7796 ft 277 kts 80°
2026-05-04 17:18 49.05109 2.85062 8805 ft 276 kts 79°
2026-05-04 17:18 49.05803 2.90934 10344 ft 294 kts 79°
2026-05-04 17:19 49.06618 2.97676 10821 ft 351 kts 79°
2026-05-04 17:19 49.07569 3.05459 11472 ft 398 kts 79°
2026-05-04 17:20 49.08601 3.13813 13432 ft 405 kts 79°
2026-05-04 17:20 49.09670 3.22336 15047 ft 419 kts 79°
2026-05-04 17:20 49.10216 3.26685 15860 ft 426 kts 80°
2026-05-04 17:21 49.11354 3.35690 17367 ft 441 kts 79°
2026-05-04 17:21 49.12551 3.44945 18848 ft 454 kts 79°
2026-05-04 17:22 49.13174 3.49694 19672 ft 458 kts 79°
2026-05-04 17:22 49.13800 3.54428 20417 ft 464 kts 79°
2026-05-04 17:23 49.15774 3.69147 22608 ft 480 kts 80°
2026-05-04 17:23 49.16448 3.74143 23228 ft 487 kts 81°
2026-05-04 17:23 49.17755 3.84293 24639 ft 497 kts 82°
2026-05-04 17:24 49.18402 3.89490 25345 ft 501 kts 82°
2026-05-04 17:24 49.20333 4.05362 27580 ft 511 kts 83°
2026-05-04 17:25 49.20974 4.10703 28679 ft 507 kts 83°
2026-05-04 17:25 49.21894 4.21201 30589 ft 493 kts 96°
2026-05-04 17:26 49.20652 4.31135 32248 ft 471 kts 117°
2026-05-04 17:26 49.15007 4.42454 34276 ft 443 kts 148°
2026-05-04 17:27 49.10071 4.48039 35014 ft 449 kts 144°
2026-05-04 17:28 49.01300 4.61253 35050 ft 448 kts 137°
2026-05-04 17:29 48.88806 4.82339 34997 ft 448 kts 137°
2026-05-04 17:31 48.78501 4.99906 35048 ft 448 kts 137°
2026-05-04 17:32 48.68246 5.17515 35053 ft 448 kts 137°
2026-05-04 17:33 48.59977 5.31592 35064 ft 447 kts 138°
2026-05-04 17:34 48.51588 5.45474 35058 ft 450 kts 137°
2026-05-04 17:35 48.41159 5.62845 35067 ft 450 kts 137°
2026-05-04 17:36 48.36977 5.69824 35069 ft 450 kts 138°
2026-05-04 17:36 48.32931 5.76969 35054 ft 453 kts 130°
2026-05-04 17:37 48.29932 5.85430 35082 ft 469 kts 116°
2026-05-04 17:37 48.27866 5.94718 35117 ft 472 kts 114°
2026-05-04 17:38 48.25796 6.04008 35071 ft 469 kts 115°
2026-05-04 17:38 48.23694 6.13257 35080 ft 472 kts 115°
2026-05-04 17:39 48.20535 6.27147 35069 ft 472 kts 114°
2026-05-04 17:39 48.18430 6.36452 35083 ft 472 kts 114°
2026-05-04 17:40 48.16340 6.45727 35088 ft 473 kts 114°
2026-05-04 17:40 48.14243 6.55074 35091 ft 476 kts 113°
2026-05-04 17:41 48.12150 6.64452 35104 ft 476 kts 113°
2026-05-04 17:41 48.10085 6.73765 35079 ft 474 kts 114°
2026-05-04 17:42 48.08020 6.83113 35107 ft 478 kts 113°
2026-05-04 17:42 48.05944 6.92572 35101 ft 478 kts 113°
2026-05-04 17:43 48.03898 7.01903 35112 ft 477 kts 112°
2026-05-04 17:43 48.01797 7.11304 35111 ft 477 kts 114°
2026-05-04 17:44 47.99591 7.20585 35124 ft 478 kts 114°
2026-05-04 17:44 47.97400 7.29937 35117 ft 478 kts 113°
2026-05-04 17:45 47.95253 7.39236 35118 ft 477 kts 113°
2026-05-04 17:45 47.93077 7.48588 35122 ft 478 kts 113°
2026-05-04 17:46 47.90931 7.57892 35115 ft 478 kts 112°
2026-05-04 17:46 47.88604 7.67108 35125 ft 477 kts 116°
2026-05-04 17:47 47.86174 7.76283 35129 ft 478 kts 115°
2026-05-04 17:47 47.83798 7.85435 35117 ft 476 kts 115°
2026-05-04 17:48 47.81442 7.94625 35118 ft 477 kts 115°
2026-05-04 17:48 47.79086 8.03798 35123 ft 478 kts 115°
2026-05-04 17:49 47.76733 8.13004 35115 ft 477 kts 114°
2026-05-04 17:49 47.74392 8.22210 35108 ft 478 kts 114°
2026-05-04 17:50 47.72061 8.31386 35120 ft 478 kts 114°
2026-05-04 17:50 47.69725 8.40622 35118 ft 477 kts 114°
2026-05-04 17:51 47.67475 8.49835 35102 ft 478 kts 112°
2026-05-04 17:51 47.65304 8.59119 35117 ft 478 kts 112°
2026-05-04 17:52 47.63122 8.68403 35108 ft 478 kts 112°
2026-05-04 17:52 47.60957 8.77634 35097 ft 477 kts 112°
2026-05-04 17:53 47.58784 8.86918 35119 ft 479 kts 112°
2026-05-04 17:53 47.56619 8.96216 35109 ft 478 kts 112°
2026-05-04 17:54 47.54473 9.05476 35107 ft 477 kts 111°
2026-05-04 17:54 47.52335 9.14729 35121 ft 479 kts 111°
2026-05-04 17:55 47.50209 9.23991 35103 ft 478 kts 111°
2026-05-04 17:55 47.48074 9.33328 35113 ft 479 kts 111°
2026-05-04 17:56 47.45959 9.42608 35095 ft 478 kts 111°
2026-05-04 17:56 47.43863 9.51844 35106 ft 479 kts 110°
2026-05-04 17:57 47.41783 9.61154 35102 ft 480 kts 109°
2026-05-04 17:57 47.40103 9.70658 35118 ft 481 kts 104°
2026-05-04 17:58 47.38730 9.80320 35125 ft 482 kts 104°
2026-05-04 17:58 47.37313 9.89923 35111 ft 481 kts 104°
2026-05-04 17:59 47.35890 9.99487 35165 ft 482 kts 104°
2026-05-04 18:00 47.33760 10.13894 35166 ft 481 kts 104°
2026-05-04 18:00 47.32347 10.23531 35183 ft 484 kts 104°
2026-05-04 18:01 47.30940 10.33188 35180 ft 482 kts 104°
2026-05-04 18:01 47.29549 10.42789 35211 ft 484 kts 104°
2026-05-04 18:02 47.27468 10.57286 35179 ft 484 kts 103°
2026-05-04 18:02 47.26098 10.66948 35228 ft 485 kts 104°
2026-05-04 18:03 47.24735 10.76614 35195 ft 483 kts 104°
2026-05-04 18:03 47.23381 10.86263 35236 ft 486 kts 103°
2026-05-04 18:04 47.22016 10.95975 35218 ft 485 kts 104°
2026-05-04 18:05 47.19736 11.10370 35251 ft 485 kts 105°
2026-05-04 18:05 47.18218 11.19990 35186 ft 483 kts 104°
2026-05-04 18:06 47.15989 11.34379 35219 ft 485 kts 104°
2026-05-04 18:06 47.14502 11.44022 35205 ft 484 kts 104°
2026-05-04 18:07 47.13027 11.53652 35210 ft 483 kts 104°
2026-05-04 18:07 47.11569 11.63234 35231 ft 484 kts 104°
2026-05-04 18:08 47.10116 11.72823 35208 ft 482 kts 104°
2026-05-04 18:08 47.08653 11.82372 35221 ft 483 kts 106°
2026-05-04 18:09 47.04013 12.00624 35244 ft 480 kts 116°
2026-05-04 18:10 47.01311 12.09491 35221 ft 479 kts 116°
2026-05-04 18:10 46.98622 12.18435 35221 ft 480 kts 115°
2026-05-04 18:11 46.95934 12.27327 35228 ft 481 kts 115°
2026-05-04 18:11 46.93248 12.36229 35213 ft 480 kts 115°
2026-05-04 18:12 46.90562 12.45179 35239 ft 482 kts 115°
2026-05-04 18:12 46.87893 12.54085 35230 ft 482 kts 115°
2026-05-04 18:13 46.85225 12.63008 35233 ft 482 kts 115°
2026-05-04 18:14 46.81226 12.76437 35212 ft 481 kts 115°
2026-05-04 18:14 46.78572 12.85376 35223 ft 483 kts 115°
2026-05-04 18:15 46.73282 13.03263 35209 ft 482 kts 114°
2026-05-04 18:16 46.70581 13.12201 35201 ft 482 kts 116°
2026-05-04 18:16 46.67802 13.21002 35219 ft 483 kts 116°
2026-05-04 18:17 46.63667 13.34301 35207 ft 482 kts 115°
2026-05-04 18:18 46.59553 13.47580 35218 ft 483 kts 115°
2026-05-04 18:18 46.56816 13.56450 35218 ft 483 kts 115°
2026-05-04 18:19 46.52752 13.69799 35198 ft 483 kts 113°
2026-05-04 18:19 46.50430 13.78882 35213 ft 484 kts 110°
2026-05-04 18:20 46.48143 13.88059 35217 ft 484 kts 111°
2026-05-04 18:20 46.45823 13.97142 35207 ft 483 kts 111°
2026-05-04 18:21 46.43487 14.06279 35220 ft 484 kts 111°
2026-05-04 18:21 46.41164 14.15400 35207 ft 484 kts 111°
2026-05-04 18:22 46.38853 14.24507 35213 ft 485 kts 110°
2026-05-04 18:22 46.36548 14.33625 35212 ft 485 kts 110°
2026-05-04 18:23 46.34242 14.42779 35201 ft 485 kts 110°
2026-05-04 18:23 46.31956 14.51898 35208 ft 486 kts 110°
2026-05-04 18:24 46.29661 14.61103 35198 ft 486 kts 110°
2026-05-04 18:24 46.27391 14.70221 35204 ft 487 kts 110°
2026-05-04 18:25 46.25122 14.79374 35192 ft 485 kts 110°
2026-05-04 18:25 46.22850 14.88563 35194 ft 486 kts 110°
2026-05-04 18:26 46.20499 14.97649 35176 ft 487 kts 111°
2026-05-04 18:26 46.18040 15.06715 35183 ft 486 kts 111°
2026-05-04 18:27 46.15602 15.15776 35173 ft 487 kts 111°
2026-05-04 18:27 46.13175 15.24861 35171 ft 488 kts 110°
2026-05-04 18:28 46.10759 15.33944 35166 ft 487 kts 110°
2026-05-04 18:28 46.08353 15.43015 35177 ft 488 kts 110°
2026-05-04 18:29 46.05955 15.52101 35166 ft 488 kts 110°
2026-05-04 18:29 46.03556 15.61213 35167 ft 488 kts 110°
2026-05-04 18:30 45.99968 15.74894 35149 ft 489 kts 110°
2026-05-04 18:31 45.97590 15.83996 35170 ft 489 kts 110°
2026-05-04 18:31 45.95224 15.93080 35165 ft 489 kts 110°
2026-05-04 18:32 45.92856 16.02200 35166 ft 490 kts 109°
2026-05-04 18:32 45.90354 16.11281 35161 ft 489 kts 111°
2026-05-04 18:33 45.87803 16.20268 35156 ft 490 kts 111°
2026-05-04 18:33 45.85260 16.29305 35156 ft 489 kts 110°
2026-05-04 18:34 45.82731 16.38352 35150 ft 489 kts 110°
2026-05-04 18:34 45.80223 16.47364 35154 ft 489 kts 110°
2026-05-04 18:35 45.77717 16.56390 35154 ft 489 kts 110°
2026-05-04 18:35 45.75235 16.65370 35153 ft 489 kts 110°
2026-05-04 18:36 45.72747 16.74391 35148 ft 488 kts 110°
2026-05-04 18:36 45.70257 16.83445 35156 ft 488 kts 110°
2026-05-04 18:37 45.67793 16.92435 35151 ft 488 kts 110°
2026-05-04 18:37 45.65330 17.01445 35154 ft 488 kts 110°
2026-05-04 18:38 45.62888 17.10403 35154 ft 488 kts 109°
2026-05-04 18:38 45.60358 17.19390 35149 ft 488 kts 111°
2026-05-04 18:39 45.57728 17.28262 35170 ft 488 kts 111°
2026-05-04 18:39 45.55116 17.37122 35160 ft 488 kts 111°
2026-05-04 18:40 45.52511 17.46022 35180 ft 488 kts 110°
2026-05-04 18:40 45.49914 17.54930 35176 ft 487 kts 110°
2026-05-04 18:41 45.47334 17.63811 35187 ft 487 kts 110°
2026-05-04 18:41 45.44752 17.72726 35180 ft 488 kts 111°
2026-05-04 18:42 45.42199 17.81569 35176 ft 487 kts 110°
2026-05-04 18:42 45.39626 17.90501 35182 ft 487 kts 110°
2026-05-04 18:43 45.37079 17.99366 35159 ft 486 kts 110°
2026-05-04 18:43 45.34541 18.08231 35163 ft 487 kts 110°
2026-05-04 18:44 45.32016 18.17068 35163 ft 487 kts 110°
2026-05-04 18:44 45.29463 18.25940 35146 ft 486 kts 111°
2026-05-04 18:45 45.26756 18.34738 35167 ft 488 kts 111°
2026-05-04 18:45 45.24051 18.43502 35159 ft 487 kts 111°
2026-05-04 18:46 45.21368 18.52267 35155 ft 487 kts 111°
2026-05-04 18:46 45.18688 18.61062 35165 ft 487 kts 110°
2026-05-04 18:47 45.16020 18.69847 35154 ft 487 kts 111°
2026-05-04 18:47 45.13264 18.78542 35125 ft 488 kts 116°
2026-05-04 18:48 45.10009 18.86964 35188 ft 490 kts 117°
2026-05-04 18:48 45.06750 18.95330 35142 ft 487 kts 116°
2026-05-04 18:49 45.03548 19.03741 35174 ft 489 kts 116°
2026-05-04 18:49 45.00325 19.12153 35159 ft 488 kts 116°
2026-05-04 18:50 44.97094 19.20595 35149 ft 488 kts 116°
2026-05-04 18:50 44.93903 19.28995 35157 ft 489 kts 115°
2026-05-04 18:51 44.90707 19.37391 35143 ft 489 kts 115°
2026-05-04 18:51 44.87488 19.45870 35155 ft 489 kts 115°
2026-05-04 18:52 44.84304 19.54280 35134 ft 489 kts 115°
2026-05-04 18:52 44.81124 19.62693 35154 ft 489 kts 115°
2026-05-04 18:53 44.77935 19.71144 35134 ft 490 kts 115°
2026-05-04 18:53 44.74776 19.79539 35152 ft 489 kts 115°
2026-05-04 18:54 44.71502 19.87945 35142 ft 490 kts 116°
2026-05-04 18:54 44.68161 19.96251 35150 ft 490 kts 116°
2026-05-04 18:55 44.64852 20.04528 35145 ft 490 kts 116°
2026-05-04 18:55 44.59900 20.17001 35152 ft 489 kts 115°
2026-05-04 18:56 44.56591 20.25362 35152 ft 489 kts 115°
2026-05-04 18:56 44.53331 20.33608 35149 ft 488 kts 115°
2026-05-04 18:57 44.50053 20.41925 35152 ft 488 kts 115°
2026-05-04 18:57 44.46776 20.50250 35147 ft 488 kts 115°
2026-05-04 18:58 44.43522 20.58528 35157 ft 488 kts 115°
2026-05-04 18:58 44.40272 20.66820 35148 ft 487 kts 115°
2026-05-04 18:59 44.37033 20.75092 35158 ft 488 kts 115°
2026-05-04 18:59 44.33791 20.83388 35151 ft 486 kts 115°
2026-05-04 19:00 44.30437 20.91589 35154 ft 488 kts 117°
2026-05-04 19:00 44.27041 20.99745 35143 ft 488 kts 116°
2026-05-04 19:01 44.23685 21.07859 35151 ft 486 kts 116°
2026-05-04 19:01 44.20316 21.16046 35159 ft 487 kts 116°
2026-05-04 19:02 44.16963 21.24216 35155 ft 486 kts 116°
2026-05-04 19:02 44.13628 21.32351 35154 ft 486 kts 116°
2026-05-04 19:03 44.10293 21.40508 35164 ft 486 kts 116°
2026-05-04 19:03 44.06985 21.48606 35162 ft 485 kts 116°
2026-05-04 19:04 44.03660 21.56765 35171 ft 485 kts 116°
2026-05-04 19:04 44.00363 21.64869 35175 ft 485 kts 115°
2026-05-04 19:05 43.97048 21.73028 35171 ft 484 kts 116°
2026-05-04 19:05 43.93773 21.81110 35179 ft 485 kts 116°
2026-05-04 19:06 43.90420 21.89226 35176 ft 485 kts 117°
2026-05-04 19:06 43.87010 21.97223 35157 ft 484 kts 117°
2026-05-04 19:07 43.83625 22.05267 35163 ft 483 kts 117°
2026-05-04 19:07 43.80271 22.13260 35177 ft 484 kts 117°
2026-05-04 19:08 43.76907 22.21260 35164 ft 483 kts 117°
2026-05-04 19:08 43.74010 22.29529 35138 ft 475 kts 101°
2026-05-04 19:09 43.73417 22.34013 35252 ft 474 kts 93°
2026-05-04 19:09 43.73101 22.38503 35216 ft 478 kts 92°
2026-05-04 19:09 43.72478 22.47593 35146 ft 471 kts 94°
2026-05-04 19:10 43.71703 22.56583 35209 ft 475 kts 94°
2026-05-04 19:10 43.70882 22.65559 35158 ft 472 kts 95°
2026-05-04 19:11 43.70059 22.74522 35203 ft 475 kts 95°
2026-05-04 19:11 43.69243 22.83533 35172 ft 472 kts 96°
2026-05-04 19:12 43.68041 22.96980 35194 ft 473 kts 96°
2026-05-04 19:13 43.67250 23.05934 35174 ft 471 kts 96°
2026-05-04 19:13 43.66465 23.14916 35170 ft 472 kts 96°
2026-05-04 19:14 43.65700 23.23862 35174 ft 473 kts 95°
2026-05-04 19:14 43.64936 23.32827 35163 ft 471 kts 95°
2026-05-04 19:15 43.64180 23.41791 35176 ft 473 kts 95°
2026-05-04 19:15 43.63411 23.50768 35165 ft 473 kts 96°
2026-05-04 19:16 43.62484 23.59750 35171 ft 474 kts 97°
2026-05-04 19:16 43.61545 23.68722 35157 ft 473 kts 97°
2026-05-04 19:17 43.60634 23.77636 35156 ft 474 kts 97°
2026-05-04 19:17 43.59725 23.86632 35156 ft 474 kts 97°
2026-05-04 19:18 43.58828 23.95584 35158 ft 473 kts 97°
2026-05-04 19:18 43.57937 24.04531 35158 ft 474 kts 97°
2026-05-04 19:19 43.57048 24.13559 35154 ft 474 kts 96°
2026-05-04 19:19 43.56180 24.22470 35151 ft 473 kts 96°
2026-05-04 19:20 43.55310 24.31470 35155 ft 474 kts 96°
2026-05-04 19:20 43.54452 24.40402 35147 ft 473 kts 96°
2026-05-04 19:21 43.53599 24.49379 35157 ft 472 kts 96°
2026-05-04 19:21 43.52756 24.58309 35156 ft 473 kts 96°
2026-05-04 19:22 43.51852 24.67257 35151 ft 473 kts 98°
2026-05-04 19:22 43.50831 24.76126 35163 ft 472 kts 98°
2026-05-04 19:23 43.49817 24.85004 35157 ft 472 kts 97°
2026-05-04 19:23 43.48821 24.93891 35158 ft 471 kts 97°
2026-05-04 19:24 43.47835 25.02767 35161 ft 470 kts 97°
2026-05-04 19:24 43.46854 25.11655 35161 ft 471 kts 97°
2026-05-04 19:25 43.45885 25.20510 35161 ft 470 kts 97°
2026-05-04 19:25 43.44922 25.29383 35161 ft 469 kts 97°
2026-05-04 19:26 43.43972 25.38237 35174 ft 469 kts 96°
2026-05-04 19:26 43.43029 25.47038 35167 ft 468 kts 96°
2026-05-04 19:27 43.42093 25.55881 35176 ft 469 kts 96°
2026-05-04 19:27 43.41162 25.64710 35175 ft 467 kts 96°
2026-05-04 19:28 43.40248 25.73483 35166 ft 467 kts 96°
2026-05-04 19:28 43.39230 25.82288 35178 ft 467 kts 98°
2026-05-04 19:29 43.38124 25.91077 35164 ft 467 kts 98°
2026-05-04 19:29 43.37040 25.99809 35174 ft 466 kts 97°
2026-05-04 19:30 43.35973 26.08548 35162 ft 466 kts 97°
2026-05-04 19:30 43.34915 26.17278 35165 ft 465 kts 97°
2026-05-04 19:31 43.33859 26.26028 35163 ft 465 kts 97°
2026-05-04 19:31 43.32819 26.34742 35169 ft 464 kts 97°
2026-05-04 19:32 43.31789 26.43408 35165 ft 463 kts 97°
2026-05-04 19:32 43.30757 26.52158 35171 ft 464 kts 96°
2026-05-04 19:33 43.29744 26.60821 35168 ft 462 kts 96°
2026-05-04 19:33 43.28731 26.69528 35175 ft 462 kts 97°
2026-05-04 19:34 43.27732 26.78169 35175 ft 462 kts 97°
2026-05-04 19:34 43.26735 26.86854 35171 ft 461 kts 96°
2026-05-04 19:35 43.25637 26.95503 35169 ft 461 kts 98°
2026-05-04 19:35 43.24469 27.04071 35173 ft 461 kts 98°
2026-05-04 19:36 43.23309 27.12708 35166 ft 459 kts 97°
2026-05-04 19:36 43.22177 27.21250 35167 ft 460 kts 97°
2026-05-04 19:37 43.21043 27.29863 35161 ft 459 kts 97°
2026-05-04 19:37 43.19920 27.38441 35164 ft 458 kts 97°
2026-05-04 19:38 43.18804 27.47027 35161 ft 459 kts 97°
2026-05-04 19:38 43.17697 27.55599 35153 ft 459 kts 97°
2026-05-04 19:39 43.16603 27.64124 35140 ft 458 kts 96°
2026-05-04 19:39 43.15513 27.72697 35153 ft 458 kts 97°
2026-05-04 19:40 43.14429 27.81222 35151 ft 458 kts 96°
2026-05-04 19:40 43.13348 27.89805 35136 ft 457 kts 96°
2026-05-04 19:41 43.12278 27.98347 35141 ft 458 kts 96°
2026-05-04 19:41 43.11130 28.06837 35138 ft 458 kts 98°
2026-05-04 19:42 43.09874 28.15399 35140 ft 457 kts 97°
2026-05-04 19:42 43.08648 28.23864 35138 ft 457 kts 97°
2026-05-04 19:43 43.07430 28.32374 35141 ft 457 kts 97°
2026-05-04 19:43 43.06228 28.40830 35139 ft 456 kts 97°
2026-05-04 19:44 43.05021 28.49360 35135 ft 456 kts 97°
2026-05-04 19:44 43.03838 28.57772 35132 ft 455 kts 96°
2026-05-04 19:45 43.02652 28.66272 35133 ft 455 kts 97°
2026-05-04 19:45 43.01476 28.74752 35142 ft 455 kts 97°
2026-05-04 19:46 43.00307 28.83206 35128 ft 454 kts 97°
2026-05-04 19:46 42.99152 28.91632 35134 ft 455 kts 96°
2026-05-04 19:47 42.97998 29.00064 35287 ft 452 kts 96°
2026-05-04 19:47 42.97425 29.04279 35521 ft 452 kts 96°
2026-05-04 19:47 42.96855 29.08482 35725 ft 453 kts 96°
2026-05-04 19:47 42.96281 29.12706 35927 ft 454 kts 96°
2026-05-04 19:48 42.95659 29.16918 36116 ft 456 kts 98°
2026-05-04 19:48 42.94996 29.21157 36325 ft 456 kts 98°
2026-05-04 19:48 42.94340 29.25328 36488 ft 455 kts 98°
2026-05-04 19:48 42.93679 29.29565 36701 ft 455 kts 98°
2026-05-04 19:49 42.93031 29.33729 36933 ft 454 kts 98°
2026-05-04 19:49 42.92386 29.37919 37073 ft 456 kts 98°
2026-05-04 19:49 42.91736 29.42156 37037 ft 461 kts 97°
2026-05-04 19:50 42.90422 29.50754 36988 ft 462 kts 97°
2026-05-04 19:50 42.89129 29.59235 36972 ft 455 kts 97°
2026-05-04 19:51 42.87859 29.67658 36999 ft 458 kts 98°
2026-05-04 19:51 42.86586 29.76128 36986 ft 459 kts 98°
2026-05-04 19:52 42.85316 29.84605 36991 ft 457 kts 97°
2026-05-04 19:52 42.84063 29.93052 36976 ft 457 kts 97°
2026-05-04 19:53 42.82800 30.01571 36834 ft 458 kts 97°
2026-05-04 19:53 42.81562 30.10000 37087 ft 459 kts 97°
2026-05-04 19:53 42.80935 30.14270 37225 ft 460 kts 97°
2026-05-04 19:54 42.80313 30.18515 37367 ft 460 kts 97°
2026-05-04 19:54 42.79689 30.22794 37528 ft 460 kts 97°
2026-05-04 19:54 42.79042 30.27031 37607 ft 462 kts 98°
2026-05-04 19:54 42.78352 30.31310 37723 ft 463 kts 98°
2026-05-04 19:55 42.77665 30.35545 37849 ft 464 kts 98°
2026-05-04 19:55 42.76301 30.44163 37619 ft 462 kts 98°
2026-05-04 19:55 42.75647 30.48367 37494 ft 457 kts 98°
2026-05-04 19:56 42.74994 30.52562 37375 ft 455 kts 98°
2026-05-04 19:56 42.74332 30.56790 37263 ft 459 kts 98°
2026-05-04 19:56 42.73680 30.61040 37179 ft 461 kts 96°
2026-05-04 19:56 42.73206 30.65289 37058 ft 458 kts 94°
2026-05-04 19:57 42.72805 30.69575 36914 ft 457 kts 94°
2026-05-04 19:57 42.71937 30.78137 36755 ft 458 kts 95°
2026-05-04 19:57 42.71479 30.82379 36632 ft 457 kts 95°
2026-05-04 19:58 42.71017 30.86611 36488 ft 455 kts 95°
2026-05-04 19:58 42.70552 30.90875 36386 ft 455 kts 94°
2026-05-04 19:58 42.70091 30.95120 36301 ft 455 kts 94°
2026-05-04 19:58 42.69632 30.99367 36144 ft 455 kts 94°
2026-05-04 19:59 42.69176 31.03596 36090 ft 455 kts 94°
2026-05-04 19:59 42.68721 31.07834 35957 ft 453 kts 94°
2026-05-04 19:59 42.68271 31.12043 35906 ft 453 kts 94°
2026-05-04 19:59 42.67820 31.16276 35795 ft 454 kts 94°
2026-05-04 20:00 42.67378 31.20451 35744 ft 453 kts 94°
2026-05-04 20:00 42.66930 31.24685 35624 ft 451 kts 94°
2026-05-04 20:00 42.66492 31.28853 35530 ft 450 kts 94°
2026-05-04 20:01 42.65623 31.37226 35402 ft 449 kts 94°
2026-05-04 20:01 42.65187 31.41448 35291 ft 449 kts 94°
2026-05-04 20:01 42.64761 31.45595 35217 ft 448 kts 94°
2026-05-04 20:02 42.63903 31.53961 35052 ft 445 kts 93°
2026-05-04 20:02 42.63070 31.62196 34985 ft 445 kts 93°
2026-05-04 20:03 42.62231 31.70509 34990 ft 446 kts 94°
2026-05-04 20:03 42.61317 31.78829 34932 ft 445 kts 95°
2026-05-04 20:04 42.60365 31.87127 34947 ft 446 kts 95°
2026-05-04 20:04 42.59453 31.95404 34931 ft 446 kts 94°
2026-05-04 20:05 42.58535 32.03717 34921 ft 445 kts 94°
2026-05-04 20:05 42.57611 32.12017 34931 ft 449 kts 95°
2026-05-04 20:06 42.56601 32.20304 34910 ft 448 kts 95°
2026-05-04 20:06 42.55583 32.28597 34930 ft 448 kts 95°
2026-05-04 20:07 42.54573 32.36909 34925 ft 450 kts 95°
2026-05-04 20:07 42.53562 32.45273 34920 ft 449 kts 95°
2026-05-04 20:08 42.52563 32.53614 34940 ft 451 kts 95°
2026-05-04 20:08 42.51567 32.61950 34930 ft 450 kts 95°
2026-05-04 20:09 42.50578 32.70327 34939 ft 451 kts 95°
2026-05-04 20:09 42.49599 32.78678 34919 ft 453 kts 95°
2026-05-04 20:10 42.48618 32.87068 34939 ft 453 kts 95°
2026-05-04 20:10 42.47639 32.95522 34905 ft 454 kts 95°
2026-05-04 20:11 42.46676 33.03888 34938 ft 454 kts 95°
2026-05-04 20:11 42.45707 33.12334 34925 ft 453 kts 95°
2026-05-04 20:12 42.44710 33.20720 34918 ft 454 kts 96°
2026-05-04 20:12 42.43639 33.29126 34944 ft 458 kts 96°
2026-05-04 20:13 42.42571 33.37560 35040 ft 454 kts 96°
2026-05-04 20:13 42.41534 33.45931 34922 ft 448 kts 96°
2026-05-04 20:14 42.40475 33.54242 34952 ft 453 kts 96°
2026-05-04 20:14 42.39376 33.62582 34914 ft 454 kts 96°
2026-05-04 20:15 42.38304 33.70955 34920 ft 453 kts 97°
2026-05-04 20:15 42.37238 33.79326 34927 ft 453 kts 97°
2026-05-04 20:16 42.36164 33.87709 34930 ft 454 kts 97°
2026-05-04 20:16 42.35094 33.96102 34912 ft 453 kts 97°
2026-05-04 20:17 42.33971 34.04430 34933 ft 454 kts 97°
2026-05-04 20:17 42.32845 34.12811 34935 ft 455 kts 97°
2026-05-04 20:18 42.31746 34.21173 34912 ft 453 kts 97°
2026-05-04 20:18 42.30638 34.29579 34920 ft 457 kts 97°
2026-05-04 20:19 42.29535 34.37978 34922 ft 457 kts 97°
2026-05-04 20:19 42.28414 34.46424 34897 ft 455 kts 98°
2026-05-04 20:20 42.27246 34.54783 34918 ft 457 kts 98°
2026-05-04 20:20 42.26090 34.63199 34904 ft 457 kts 98°
2026-05-04 20:21 42.24955 34.71600 34930 ft 457 kts 98°
2026-05-04 20:21 42.23231 34.84251 34890 ft 459 kts 99°
2026-05-04 20:22 42.22018 34.92665 34917 ft 461 kts 99°
2026-05-04 20:22 42.20788 35.01164 34892 ft 462 kts 99°
2026-05-04 20:23 42.19591 35.09611 34900 ft 460 kts 99°
2026-05-04 20:23 42.18396 35.18057 34910 ft 461 kts 99°
2026-05-04 20:24 42.17209 35.26481 34882 ft 461 kts 99°
2026-05-04 20:24 42.16016 35.34996 34902 ft 464 kts 99°
2026-05-04 20:25 42.14833 35.43470 34866 ft 460 kts 99°
2026-05-04 20:25 42.13547 35.51913 34895 ft 463 kts 100°
2026-05-04 20:26 42.12229 35.60386 34879 ft 462 kts 100°
2026-05-04 20:26 42.10939 35.68780 34890 ft 463 kts 101°
2026-05-04 20:27 42.09646 35.77271 34891 ft 465 kts 101°
2026-05-04 20:27 42.08358 35.85764 34871 ft 465 kts 101°
2026-05-04 20:28 42.07077 35.94257 34865 ft 465 kts 101°
2026-05-04 20:28 42.05801 36.02754 34863 ft 467 kts 101°
2026-05-04 20:29 42.04522 36.11343 34883 ft 467 kts 101°
2026-05-04 20:29 42.03261 36.19856 34859 ft 466 kts 101°
2026-05-04 20:30 42.02007 36.28356 34878 ft 468 kts 101°
2026-05-04 20:30 42.00748 36.36933 34863 ft 468 kts 101°
2026-05-04 20:31 41.99498 36.45492 34875 ft 469 kts 101°
2026-05-04 20:31 41.98245 36.54046 34866 ft 469 kts 101°
2026-05-04 20:32 41.96875 36.62589 34877 ft 470 kts 102°
2026-05-04 20:32 41.95504 36.71167 34880 ft 471 kts 102°
2026-05-04 20:33 41.94171 36.79723 34876 ft 471 kts 102°
2026-05-04 20:33 41.92821 36.88342 34876 ft 471 kts 102°
2026-05-04 20:34 41.91482 36.96907 34877 ft 471 kts 102°
2026-05-04 20:34 41.90525 37.05550 34876 ft 472 kts 95°
2026-05-04 20:35 41.90270 37.14394 34906 ft 474 kts 92°
2026-05-04 20:35 41.90100 37.23160 34878 ft 473 kts 92°
2026-05-04 20:36 41.89899 37.31988 34890 ft 474 kts 92°
2026-05-04 20:36 41.89696 37.40816 34894 ft 473 kts 92°
2026-05-04 20:37 41.89499 37.49598 34889 ft 475 kts 92°
2026-05-04 20:37 41.89312 37.58412 34894 ft 475 kts 92°
2026-05-04 20:38 41.89129 37.67271 34889 ft 475 kts 92°
2026-05-04 20:38 41.88959 37.76075 34894 ft 475 kts 92°
2026-05-04 20:39 41.88794 37.84964 34901 ft 476 kts 92°
2026-05-04 20:39 41.88641 37.93771 34891 ft 476 kts 92°
2026-05-04 20:40 41.88500 38.02664 34899 ft 477 kts 92°
2026-05-04 20:40 41.88362 38.11514 34890 ft 477 kts 92°
2026-05-04 20:41 41.88233 38.20363 34890 ft 477 kts 92°
2026-05-04 20:41 41.88055 38.29232 34878 ft 477 kts 93°
2026-05-04 20:42 41.87753 38.38108 34892 ft 478 kts 94°
2026-05-04 20:42 41.87454 38.46968 34880 ft 478 kts 94°
2026-05-04 20:43 41.87172 38.55845 34873 ft 479 kts 93°
2026-05-04 20:43 41.86900 38.64767 34882 ft 478 kts 93°
2026-05-04 20:44 41.86634 38.73668 34879 ft 478 kts 94°
2026-05-04 20:44 41.86377 38.82542 34877 ft 479 kts 94°
2026-05-04 20:45 41.86126 38.91444 34875 ft 479 kts 94°
2026-05-04 20:45 41.85886 39.00330 34871 ft 480 kts 94°
2026-05-04 20:46 41.85652 39.09226 34877 ft 480 kts 94°
2026-05-04 20:46 41.85422 39.18170 34874 ft 480 kts 94°
2026-05-04 20:47 41.85203 39.27066 34872 ft 480 kts 94°
2026-05-04 20:47 41.84989 39.35969 34878 ft 480 kts 94°
2026-05-04 20:48 41.84660 39.44865 34876 ft 480 kts 95°
2026-05-04 20:48 41.84288 39.53799 34870 ft 480 kts 95°
2026-05-04 20:49 41.83940 39.62683 34873 ft 480 kts 95°
2026-05-04 20:49 41.83612 39.71590 34879 ft 480 kts 95°
2026-05-04 20:50 41.83284 39.80477 34869 ft 479 kts 95°
2026-05-04 20:50 41.82965 39.89377 34878 ft 480 kts 95°
2026-05-04 20:51 41.82654 39.98303 34882 ft 481 kts 95°
2026-05-04 20:51 41.82348 40.07224 34869 ft 480 kts 95°
2026-05-04 20:52 41.82033 40.16105 34867 ft 480 kts 96°
2026-05-04 20:52 41.81618 40.25019 34875 ft 481 kts 96°
2026-05-04 20:53 41.81220 40.33910 34874 ft 480 kts 96°
2026-05-04 20:53 41.80850 40.42826 34853 ft 479 kts 96°
2026-05-04 20:54 41.80479 40.51734 34878 ft 482 kts 96°
2026-05-04 20:54 41.80115 40.60638 34850 ft 480 kts 96°
2026-05-04 20:55 41.79733 40.69521 34867 ft 481 kts 97°
2026-05-04 20:55 41.79207 40.78437 34864 ft 479 kts 98°
2026-05-04 20:56 41.78681 40.87302 34865 ft 480 kts 97°
2026-05-04 20:56 41.78175 40.96200 34870 ft 481 kts 97°
2026-05-04 20:57 41.77681 41.05058 34859 ft 481 kts 97°
2026-05-04 20:57 41.77195 41.13946 34871 ft 480 kts 97°
2026-05-04 20:58 41.76716 41.22816 34880 ft 479 kts 97°
2026-05-04 20:58 41.76244 41.31682 34876 ft 481 kts 97°
2026-05-04 20:59 41.75780 41.40600 34880 ft 479 kts 97°
2026-05-04 20:59 41.75326 41.49440 34876 ft 478 kts 97°
2026-05-04 21:00 41.74875 41.58310 34896 ft 480 kts 97°
2026-05-04 21:00 41.74436 41.67190 34876 ft 478 kts 98°
2026-05-04 21:01 41.74002 41.76010 34887 ft 479 kts 98°
2026-05-04 21:01 41.73486 41.84914 34871 ft 477 kts 99°
2026-05-04 21:02 41.72882 41.93732 34819 ft 481 kts 99°
2026-05-04 21:02 41.72578 41.98191 35006 ft 489 kts 99°
2026-05-04 21:02 41.72281 42.02672 34903 ft 486 kts 99°
2026-05-04 21:03 41.71712 42.11489 34957 ft 474 kts 99°
2026-05-04 21:03 41.71143 42.20330 34998 ft 483 kts 99°
2026-05-04 21:04 41.70582 42.29227 34985 ft 482 kts 99°
2026-05-04 21:04 41.70030 42.38119 34985 ft 480 kts 99°
2026-05-04 21:05 41.69480 42.47022 35018 ft 481 kts 99°
2026-05-04 21:05 41.68948 42.55863 34992 ft 480 kts 99°
2026-05-04 21:06 41.68414 42.64764 35011 ft 483 kts 99°
2026-05-04 21:06 41.67887 42.73662 34996 ft 480 kts 100°
2026-05-04 21:07 41.67355 42.82544 34993 ft 479 kts 101°
2026-05-04 21:07 41.66537 42.91312 35015 ft 479 kts 105°
2026-05-04 21:08 41.65343 43.00059 34991 ft 476 kts 106°
2026-05-04 21:08 41.64109 43.08701 35024 ft 477 kts 106°
2026-05-04 21:09 41.62893 43.17381 34998 ft 476 kts 106°
2026-05-04 21:09 41.61684 43.26033 35020 ft 478 kts 106°
2026-05-04 21:10 41.60477 43.34721 34991 ft 477 kts 106°
2026-05-04 21:10 41.59277 43.43415 35011 ft 480 kts 106°
2026-05-04 21:11 41.58075 43.52147 34996 ft 477 kts 105°
2026-05-04 21:11 41.56882 43.60884 34975 ft 479 kts 105°
2026-05-04 21:12 41.55698 43.69600 35001 ft 481 kts 106°
2026-05-04 21:12 41.54512 43.78361 35035 ft 480 kts 106°
2026-05-04 21:13 41.53341 43.87103 34994 ft 482 kts 106°
2026-05-04 21:13 41.52156 43.95952 35031 ft 485 kts 106°
2026-05-04 21:14 41.50988 44.04711 34990 ft 481 kts 107°
2026-05-04 21:14 41.49676 44.13457 35004 ft 484 kts 107°
2026-05-04 21:15 41.48338 44.22200 34991 ft 484 kts 107°
2026-05-04 21:15 41.47030 44.30922 34950 ft 480 kts 107°
2026-05-04 21:16 41.45723 44.39702 34953 ft 484 kts 107°
2026-05-04 21:16 41.44430 44.48461 34954 ft 483 kts 106°
2026-05-04 21:17 41.43146 44.57211 34967 ft 484 kts 106°
2026-05-04 21:17 41.41870 44.65929 34953 ft 483 kts 107°
2026-05-04 21:18 41.40596 44.74702 34924 ft 481 kts 106°
2026-05-04 21:18 41.39326 44.83457 34949 ft 484 kts 106°
2026-05-04 21:19 41.38075 44.92173 34931 ft 484 kts 106°
2026-05-04 21:19 41.36812 45.01000 34937 ft 484 kts 106°
2026-05-04 21:20 41.35394 45.09650 34921 ft 480 kts 110°
2026-05-04 21:20 41.33353 45.18088 34930 ft 478 kts 114°
2026-05-04 21:21 41.31171 45.26398 34909 ft 479 kts 114°
2026-05-04 21:21 41.29028 45.34743 34896 ft 479 kts 114°
2026-05-04 21:22 41.26879 45.43067 34904 ft 480 kts 114°
2026-05-04 21:22 41.24707 45.51467 34893 ft 480 kts 114°
2026-05-04 21:23 41.22565 45.59804 34902 ft 481 kts 114°
2026-05-04 21:23 41.20389 45.68207 34900 ft 480 kts 115°
2026-05-04 21:24 41.18120 45.76506 34906 ft 479 kts 115°
2026-05-04 21:24 41.15883 45.84784 34907 ft 480 kts 115°
2026-05-04 21:25 41.13668 45.93161 34894 ft 481 kts 115°
2026-05-04 21:25 41.11467 46.01469 34894 ft 482 kts 115°
2026-05-04 21:26 41.09259 46.09826 34882 ft 482 kts 115°
2026-05-04 21:26 41.07051 46.18233 34886 ft 483 kts 114°
2026-05-04 21:27 41.04851 46.26611 34884 ft 483 kts 114°
2026-05-04 21:27 41.02627 46.34899 34883 ft 482 kts 115°
2026-05-04 21:28 41.00322 46.43239 34900 ft 484 kts 115°
2026-05-04 21:28 40.98061 46.51620 34883 ft 483 kts 115°
2026-05-04 21:29 40.95839 46.59957 34899 ft 485 kts 115°
2026-05-04 21:29 40.93595 46.68351 34898 ft 484 kts 115°
2026-05-04 21:30 40.91376 46.76733 34872 ft 485 kts 114°
2026-05-04 21:30 40.89764 46.85372 34885 ft 493 kts 103°
2026-05-04 21:31 40.88708 46.98987 34919 ft 499 kts 101°
2026-05-04 21:32 40.88023 47.08028 34868 ft 494 kts 101°
2026-05-04 21:32 40.87318 47.17065 34912 ft 499 kts 101°
2026-05-04 21:33 40.86621 47.26144 34874 ft 497 kts 101°
2026-05-04 21:33 40.85930 47.35254 34911 ft 501 kts 100°
2026-05-04 21:34 40.85260 47.44362 34902 ft 501 kts 100°
2026-05-04 21:34 40.84602 47.53477 34913 ft 502 kts 100°
2026-05-04 21:35 40.83943 47.62638 34910 ft 502 kts 100°
2026-05-04 21:35 40.83299 47.71761 34908 ft 503 kts 100°
2026-05-04 21:36 40.82667 47.80912 34913 ft 502 kts 100°
2026-05-04 21:36 40.82041 47.90105 34919 ft 504 kts 100°
2026-05-04 21:37 40.81427 47.99239 34948 ft 504 kts 100°
2026-05-04 21:37 40.80816 48.08471 34984 ft 506 kts 99°
2026-05-04 21:37 40.80513 48.13054 35527 ft 506 kts 99°
2026-05-04 21:38 40.80214 48.17657 36110 ft 507 kts 99°
2026-05-04 21:38 40.79913 48.22322 36549 ft 513 kts 99°
2026-05-04 21:38 40.79617 48.26966 36975 ft 518 kts 99°
2026-05-04 21:39 40.79028 48.36396 36968 ft 511 kts 99°
2026-05-04 21:39 40.78737 48.41035 37078 ft 507 kts 99°
2026-05-04 21:39 40.78449 48.45607 36942 ft 502 kts 99°
2026-05-04 21:40 40.77883 48.54711 37041 ft 501 kts 99°
2026-05-04 21:40 40.77322 48.63954 37026 ft 514 kts 99°
2026-05-04 21:41 40.76644 48.73289 36940 ft 507 kts 101°
2026-05-04 21:41 40.75939 48.82473 36963 ft 506 kts 100°
2026-05-04 21:42 40.75266 48.91723 37008 ft 510 kts 100°
2026-05-04 21:42 40.74612 49.00940 36948 ft 506 kts 100°
2026-05-04 21:43 40.73942 49.10201 36973 ft 510 kts 100°
2026-05-04 21:43 40.73296 49.19447 36946 ft 509 kts 100°
2026-05-04 21:44 40.72515 49.28634 36942 ft 507 kts 103°
2026-05-04 21:44 40.71409 49.37810 36966 ft 507 kts 104°
2026-05-04 21:45 40.70315 49.46977 36928 ft 507 kts 103°
2026-05-04 21:45 40.69216 49.56078 36948 ft 507 kts 104°
2026-05-04 21:46 40.67999 49.65228 36947 ft 507 kts 105°
2026-05-04 21:46 40.66814 49.74316 36927 ft 506 kts 104°
2026-05-04 21:47 40.65644 49.83473 36919 ft 508 kts 104°
2026-05-04 21:47 40.64497 49.92536 36937 ft 509 kts 104°
2026-05-04 21:48 40.63348 50.01695 36933 ft 510 kts 104°
2026-05-04 21:48 40.62203 50.10875 36924 ft 509 kts 104°
2026-05-04 21:49 40.61064 50.20065 36959 ft 511 kts 104°
2026-05-04 21:49 40.59932 50.29260 36916 ft 511 kts 104°
2026-05-04 21:50 40.58805 50.38477 36943 ft 513 kts 103°
2026-05-04 21:50 40.57683 50.47719 36924 ft 513 kts 103°
2026-05-04 21:51 40.56566 50.56951 36932 ft 515 kts 103°
2026-05-04 21:51 40.55418 50.66185 36915 ft 514 kts 105°
2026-05-04 21:52 40.54174 50.75392 36895 ft 514 kts 105°
2026-05-04 21:52 40.52970 50.84618 36935 ft 517 kts 104°
2026-05-04 21:53 40.51787 50.93874 36893 ft 515 kts 104°
2026-05-04 21:53 40.50860 51.03244 36940 ft 518 kts 101°
2026-05-04 21:54 40.49999 51.12616 36923 ft 520 kts 101°
2026-05-04 21:54 40.49137 51.21989 36914 ft 518 kts 101°
2026-05-04 21:55 40.48285 51.31393 36943 ft 522 kts 101°
2026-05-04 21:55 40.47456 51.40784 36910 ft 520 kts 101°
2026-05-04 21:56 40.46490 51.50142 36926 ft 519 kts 104°
2026-05-04 21:56 40.44936 51.59363 36939 ft 517 kts 109°
2026-05-04 21:57 40.43179 51.68429 36917 ft 516 kts 110°
2026-05-04 21:57 40.41443 51.77553 36898 ft 517 kts 109°
2026-05-04 21:58 40.39720 51.86698 36941 ft 521 kts 109°
2026-05-04 21:58 40.37980 51.95875 36901 ft 518 kts 109°
2026-05-04 21:59 40.36259 52.05011 36932 ft 520 kts 109°
2026-05-04 21:59 40.34549 52.14172 36918 ft 521 kts 109°
2026-05-04 22:00 40.32829 52.23373 36911 ft 521 kts 109°
2026-05-04 22:00 40.31115 52.32606 36932 ft 523 kts 108°
2026-05-04 22:01 40.29425 52.41760 36906 ft 522 kts 108°
2026-05-04 22:01 40.27716 52.51033 36932 ft 523 kts 108°
2026-05-04 22:02 40.25471 52.59898 36907 ft 512 kts 121°
2026-05-04 22:02 40.21727 52.67699 36992 ft 506 kts 132°
2026-05-04 22:03 40.17682 52.75127 36869 ft 502 kts 132°
2026-05-04 22:03 40.13710 52.82614 36932 ft 505 kts 131°
2026-05-04 22:04 40.09709 52.90231 36909 ft 506 kts 131°
2026-05-04 22:04 40.05795 52.97807 36879 ft 508 kts 128°
2026-05-04 22:05 40.02587 53.06081 36943 ft 521 kts 117°
2026-05-04 22:05 40.00075 53.14920 36951 ft 521 kts 115°
2026-05-04 22:06 39.97553 53.23687 36893 ft 520 kts 116°
2026-05-04 22:06 39.94959 53.32535 36933 ft 523 kts 116°
2026-05-04 22:07 39.92384 53.41328 36885 ft 520 kts 116°
2026-05-04 22:07 39.89815 53.50120 36916 ft 523 kts 115°
2026-05-04 22:08 39.87235 53.58982 36911 ft 524 kts 115°
2026-05-04 22:08 39.84691 53.67772 36886 ft 523 kts 115°
2026-05-04 22:09 39.82140 53.76618 36876 ft 523 kts 115°
2026-05-04 22:09 39.79607 53.85445 36872 ft 525 kts 115°
2026-05-04 22:10 39.77066 53.94318 36888 ft 526 kts 115°
2026-05-04 22:10 39.74535 54.03184 36867 ft 524 kts 115°
2026-05-04 22:11 39.71982 54.12083 36884 ft 526 kts 115°
2026-05-04 22:11 39.69313 54.20856 36882 ft 526 kts 116°
2026-05-04 22:12 39.66618 54.29642 36873 ft 525 kts 115°
2026-05-04 22:12 39.63947 54.38446 36899 ft 527 kts 115°
2026-05-04 22:13 39.61283 54.47290 36898 ft 528 kts 115°
2026-05-04 22:13 39.58625 54.56107 36910 ft 527 kts 115°
2026-05-04 22:14 39.55967 54.64950 36897 ft 528 kts 114°
2026-05-04 22:14 39.53326 54.73779 36865 ft 528 kts 115°
2026-05-04 22:15 39.50680 54.82635 36871 ft 530 kts 115°
2026-05-04 22:15 39.48056 54.91441 36866 ft 528 kts 114°
2026-05-04 22:16 39.45414 55.00328 36870 ft 530 kts 115°
2026-05-04 22:16 39.42775 55.09228 36876 ft 532 kts 114°
2026-05-04 22:17 39.40086 55.18027 37074 ft 529 kts 115°
2026-05-04 22:17 39.38711 55.22407 36953 ft 527 kts 115°
2026-05-04 22:17 39.37337 55.26814 36871 ft 522 kts 115°
2026-05-04 22:18 39.34668 55.35513 36932 ft 528 kts 114°
2026-05-04 22:18 39.31953 55.44362 36886 ft 529 kts 115°
2026-05-04 22:19 39.29265 55.53111 36867 ft 527 kts 114°
2026-05-04 22:19 39.26371 55.61743 36915 ft 529 kts 119°
2026-05-04 22:20 39.23079 55.70177 36867 ft 525 kts 121°
2026-05-04 22:20 39.19796 55.78559 36910 ft 527 kts 120°
2026-05-04 22:21 39.16539 55.87001 36911 ft 527 kts 120°
2026-05-04 22:21 39.13259 55.95432 36899 ft 526 kts 120°
2026-05-04 22:22 39.09997 56.03842 36946 ft 530 kts 119°
2026-05-04 22:22 39.06747 56.12280 36917 ft 527 kts 120°
2026-05-04 22:23 39.03488 56.20705 36917 ft 528 kts 119°
2026-05-04 22:23 39.00328 56.29233 36900 ft 531 kts 115°
2026-05-04 22:24 38.97728 56.38056 36897 ft 530 kts 111°
2026-05-04 22:24 38.95294 56.46931 36920 ft 531 kts 111°
2026-05-04 22:25 38.92765 56.55884 36907 ft 531 kts 111°
2026-05-04 22:25 38.90256 56.64730 36918 ft 530 kts 111°
2026-05-04 22:26 38.87748 56.73609 36889 ft 530 kts 112°
2026-05-04 22:26 38.85260 56.82446 36899 ft 532 kts 111°
2026-05-04 22:27 38.82755 56.91383 36901 ft 530 kts 111°
2026-05-04 22:27 38.80291 57.00227 36900 ft 531 kts 111°
2026-05-04 22:28 38.77817 57.09130 36922 ft 530 kts 111°
2026-05-04 22:28 38.75368 57.17974 36913 ft 531 kts 111°
2026-05-04 22:29 38.72899 57.26899 36926 ft 532 kts 110°
2026-05-04 22:29 38.70460 57.35759 36926 ft 530 kts 110°
2026-05-04 22:30 38.67959 57.44592 36931 ft 530 kts 111°
2026-05-04 22:30 38.65402 57.53424 36941 ft 532 kts 111°
2026-05-04 22:31 38.62903 57.62239 36930 ft 530 kts 111°
2026-05-04 22:31 38.60178 57.71004 36913 ft 529 kts 116°
2026-05-04 22:32 38.57137 57.79507 36950 ft 530 kts 116°
2026-05-04 22:32 38.54086 57.88074 36922 ft 529 kts 116°
2026-05-04 22:33 38.51104 57.96570 36953 ft 530 kts 116°
2026-05-04 22:33 38.48054 58.05181 36933 ft 531 kts 116°
2026-05-04 22:34 38.45049 58.13715 36947 ft 530 kts 115°
2026-05-04 22:34 38.42037 58.22292 36947 ft 531 kts 115°
2026-05-04 22:35 38.39463 58.31010 36932 ft 531 kts 106°
2026-05-04 22:35 38.37607 58.40143 36988 ft 534 kts 104°
2026-05-04 22:36 38.35777 58.49250 36923 ft 531 kts 104°
2026-05-04 22:36 38.33907 58.58282 36958 ft 533 kts 104°
2026-05-04 22:37 38.32013 58.67407 36936 ft 532 kts 105°
2026-05-04 22:37 38.30142 58.76463 36907 ft 530 kts 105°
2026-05-04 22:38 38.28284 58.85511 36955 ft 533 kts 105°
2026-05-04 22:38 38.26430 58.94587 36907 ft 530 kts 104°
2026-05-04 22:39 38.24584 59.03689 36948 ft 532 kts 104°
2026-05-04 22:39 38.22764 59.12735 36922 ft 532 kts 104°
2026-05-04 22:40 38.20944 59.21781 36933 ft 530 kts 104°
2026-05-04 22:40 38.19126 59.30877 36952 ft 532 kts 104°
2026-05-04 22:41 38.17309 59.39959 36933 ft 531 kts 104°
2026-05-04 22:41 38.15374 59.48943 36947 ft 531 kts 105°
2026-05-04 22:42 38.13404 59.58001 36950 ft 532 kts 104°
2026-05-04 22:42 38.11491 59.66966 36932 ft 530 kts 105°
2026-05-04 22:43 38.09569 59.76008 36923 ft 531 kts 105°
2026-05-04 22:43 38.07659 59.84984 36948 ft 531 kts 105°
2026-05-04 22:44 38.05752 59.94026 36940 ft 530 kts 105°
2026-05-04 22:44 38.03858 60.03020 36951 ft 530 kts 104°
2026-05-04 22:45 38.01968 60.12024 36952 ft 531 kts 104°
2026-05-04 22:45 37.99063 60.25522 36950 ft 531 kts 105°
2026-05-04 22:46 37.97008 60.34481 36960 ft 531 kts 105°
2026-05-04 22:46 37.94971 60.43454 36958 ft 531 kts 105°
2026-05-04 22:47 37.92955 60.52463 36962 ft 532 kts 105°
2026-05-04 22:47 37.90945 60.61448 36969 ft 532 kts 105°
2026-05-04 22:48 37.88959 60.70366 36939 ft 531 kts 105°
2026-05-04 22:48 37.86961 60.79377 36965 ft 533 kts 105°
2026-05-04 22:49 37.84974 60.88355 36964 ft 533 kts 105°
2026-05-04 22:49 37.82994 60.97353 36959 ft 532 kts 105°
2026-05-04 22:50 37.81009 61.06391 36986 ft 535 kts 105°
2026-05-04 22:50 37.79043 61.15372 36966 ft 532 kts 104°
2026-05-04 22:51 37.77051 61.24343 36977 ft 533 kts 105°
2026-05-04 22:51 37.74944 61.33279 36986 ft 533 kts 105°
2026-05-04 22:52 37.72857 61.42231 36973 ft 532 kts 105°
2026-05-04 22:52 37.70808 61.51161 36985 ft 532 kts 105°
2026-05-04 22:53 37.68737 61.60135 36986 ft 531 kts 105°
2026-05-04 22:53 37.66699 61.69012 36962 ft 531 kts 105°
2026-05-04 22:54 37.64653 61.77982 36953 ft 531 kts 105°
2026-05-04 22:54 37.62493 61.86824 36930 ft 531 kts 111°
2026-05-04 22:55 37.58963 61.94935 37001 ft 530 kts 127°
2026-05-04 22:55 37.54498 62.02307 36981 ft 530 kts 129°
2026-05-04 22:56 37.50037 62.09610 36951 ft 526 kts 128°
2026-05-04 22:56 37.45641 62.17017 37014 ft 532 kts 128°
2026-05-04 22:57 37.41261 62.24404 36947 ft 527 kts 128°
2026-05-04 22:57 37.36874 62.31758 37009 ft 530 kts 128°
2026-05-04 22:58 37.32465 62.39198 36983 ft 530 kts 127°
2026-05-04 22:58 37.28097 62.46569 36966 ft 528 kts 127°
2026-05-04 22:59 37.23700 62.53976 37015 ft 531 kts 127°
2026-05-04 22:59 37.19340 62.61357 36971 ft 528 kts 127°
2026-05-04 23:00 37.14968 62.68750 37000 ft 530 kts 128°
2026-05-04 23:00 37.10587 62.76163 36978 ft 530 kts 127°
2026-05-04 23:01 37.06186 62.83532 36982 ft 529 kts 129°
2026-05-04 23:01 37.01710 62.90793 37013 ft 531 kts 129°
2026-05-04 23:02 36.97224 62.98114 36998 ft 529 kts 128°
2026-05-04 23:02 36.92800 63.05384 37022 ft 531 kts 128°
2026-05-04 23:03 36.88311 63.12741 37016 ft 531 kts 128°
2026-05-04 23:03 36.83872 63.20029 36995 ft 531 kts 128°
2026-05-04 23:04 36.79401 63.27393 37036 ft 533 kts 128°
2026-05-04 23:04 36.74971 63.34676 37002 ft 531 kts 128°
2026-05-04 23:05 36.70519 63.42011 37036 ft 533 kts 128°
2026-05-04 23:05 36.66061 63.49369 37026 ft 532 kts 127°
2026-05-04 23:06 36.61606 63.56724 37032 ft 533 kts 127°
2026-05-04 23:06 36.57157 63.64048 37036 ft 534 kts 128°
2026-05-04 23:07 36.52597 63.71320 37011 ft 532 kts 129°
2026-05-04 23:07 36.48070 63.78537 37057 ft 534 kts 128°
2026-05-04 23:08 36.43544 63.85827 37041 ft 533 kts 128°
2026-05-04 23:08 36.39012 63.93096 37042 ft 533 kts 128°
2026-05-04 23:09 36.34468 64.00394 37059 ft 535 kts 128°
2026-05-04 23:09 36.29962 64.07657 37030 ft 533 kts 128°
2026-05-04 23:10 36.25441 64.14934 37051 ft 535 kts 128°
2026-05-04 23:10 36.20908 64.22244 37045 ft 535 kts 128°
2026-05-04 23:11 36.16425 64.29483 37031 ft 535 kts 128°
2026-05-04 23:11 36.12007 64.36859 37047 ft 535 kts 126°
2026-05-04 23:12 36.07579 64.44238 37054 ft 536 kts 127°
2026-05-04 23:12 36.03125 64.51610 37050 ft 535 kts 127°
2026-05-04 23:13 35.98704 64.58954 37070 ft 536 kts 126°
2026-05-04 23:13 35.94265 64.66363 37082 ft 536 kts 127°
2026-05-04 23:14 35.89858 64.73707 37077 ft 535 kts 127°
2026-05-04 23:14 35.85418 64.81125 37130 ft 538 kts 127°
2026-05-04 23:15 35.81033 64.88458 37111 ft 535 kts 126°
2026-05-04 23:15 35.76609 64.95859 37190 ft 538 kts 126°
2026-05-04 23:16 35.72195 65.03256 37178 ft 536 kts 126°
2026-05-04 23:16 35.67798 65.10629 37223 ft 537 kts 126°
2026-05-04 23:17 35.63327 65.17992 37214 ft 536 kts 127°
2026-05-04 23:17 35.58834 65.25218 37256 ft 537 kts 127°
2026-05-04 23:18 35.54346 65.32501 37280 ft 536 kts 127°
2026-05-04 23:18 35.49870 65.39788 37275 ft 535 kts 127°
2026-05-04 23:19 35.45378 65.47090 37302 ft 537 kts 127°
2026-05-04 23:19 35.40896 65.54388 37294 ft 536 kts 126°
2026-05-04 23:20 35.36462 65.61627 37330 ft 536 kts 126°
2026-05-04 23:20 35.31994 65.68913 37308 ft 536 kts 127°
2026-05-04 23:21 35.27554 65.76169 37322 ft 534 kts 127°
2026-05-04 23:21 35.23099 65.83454 37345 ft 537 kts 126°
2026-05-04 23:22 35.18652 65.90736 37332 ft 533 kts 126°
2026-05-04 23:22 35.14194 65.97979 37400 ft 536 kts 127°
2026-05-04 23:23 35.09663 66.05167 37356 ft 534 kts 127°
2026-05-04 23:23 35.05192 66.12354 37409 ft 534 kts 127°
2026-05-04 23:24 35.00702 66.19576 37398 ft 534 kts 127°
2026-05-04 23:24 34.96231 66.26731 37393 ft 534 kts 127°
2026-05-04 23:25 34.91657 66.33857 37410 ft 536 kts 128°
2026-05-04 23:25 34.87062 66.40977 37391 ft 533 kts 127°
2026-05-04 23:26 34.82514 66.48109 37400 ft 534 kts 127°
2026-05-04 23:26 34.77948 66.55236 37409 ft 535 kts 127°
2026-05-04 23:27 34.73404 66.62328 37391 ft 535 kts 127°
2026-05-04 23:27 34.68855 66.69470 37398 ft 535 kts 128°
2026-05-04 23:28 34.64321 66.76562 37385 ft 534 kts 128°
2026-05-04 23:28 34.59763 66.83708 37409 ft 535 kts 127°
2026-05-04 23:29 34.55235 66.90826 37397 ft 534 kts 127°
2026-05-04 23:29 34.50665 66.97896 37391 ft 534 kts 128°
2026-05-04 23:30 34.46037 67.04890 37407 ft 535 kts 128°
2026-05-04 23:30 34.41407 67.11942 37392 ft 534 kts 128°
2026-05-04 23:31 34.36842 67.18927 37393 ft 534 kts 128°
2026-05-04 23:31 34.32213 67.25980 37391 ft 534 kts 128°
2026-05-04 23:32 34.27625 67.33001 37376 ft 534 kts 128°
2026-05-04 23:32 34.23038 67.40026 37380 ft 533 kts 128°
2026-05-04 23:33 34.18466 67.47021 37362 ft 532 kts 127°
2026-05-04 23:33 34.13921 67.53995 37386 ft 533 kts 127°
2026-05-04 23:34 34.09347 67.61012 37372 ft 533 kts 127°
2026-05-04 23:34 34.04750 67.68072 37373 ft 534 kts 128°
2026-05-04 23:35 34.00166 67.75090 37343 ft 532 kts 129°
2026-05-04 23:35 33.95522 67.82000 37378 ft 534 kts 129°
2026-05-04 23:36 33.90814 67.88876 37362 ft 532 kts 129°
2026-05-04 23:36 33.86161 67.95746 37346 ft 532 kts 129°
2026-05-04 23:37 33.81466 68.02671 37374 ft 534 kts 129°
2026-05-04 23:37 33.76784 68.09553 37348 ft 532 kts 129°
2026-05-04 23:38 33.72122 68.16443 37358 ft 533 kts 128°
2026-05-04 23:38 33.67479 68.23299 37306 ft 532 kts 129°
2026-05-04 23:39 33.62828 68.30164 37327 ft 533 kts 128°
2026-05-04 23:39 33.58171 68.37058 37298 ft 532 kts 128°
2026-05-04 23:40 33.53509 68.43933 37282 ft 533 kts 129°
2026-05-04 23:40 33.48653 68.50665 37287 ft 533 kts 131°
2026-05-04 23:41 33.43837 68.57341 37242 ft 532 kts 130°
2026-05-04 23:41 33.39035 68.64095 37255 ft 534 kts 130°
2026-05-04 23:42 33.34246 68.70789 37220 ft 533 kts 130°
2026-05-04 23:42 33.29431 68.77522 37232 ft 533 kts 130°
2026-05-04 23:43 33.24735 68.84378 37222 ft 534 kts 127°
2026-05-04 23:43 33.20284 68.91396 37254 ft 532 kts 127°
2026-05-04 23:44 33.15760 68.98386 37251 ft 533 kts 127°
2026-05-04 23:44 33.11196 69.05389 37285 ft 535 kts 127°
2026-05-04 23:45 33.06668 69.12372 37260 ft 532 kts 127°
2026-05-04 23:45 33.02173 69.19323 37268 ft 532 kts 127°
2026-05-04 23:46 32.97640 69.26333 37250 ft 534 kts 127°
2026-05-04 23:46 32.93149 69.33281 37217 ft 531 kts 127°
2026-05-04 23:47 32.88673 69.40226 37251 ft 533 kts 127°
2026-05-04 23:47 32.84142 69.47185 37181 ft 530 kts 128°
2026-05-04 23:48 32.79572 69.54009 37220 ft 532 kts 128°
2026-05-04 23:48 32.74967 69.60923 37221 ft 531 kts 128°
2026-05-04 23:49 32.70449 69.67750 37217 ft 529 kts 128°
2026-05-04 23:49 32.65884 69.74618 37228 ft 529 kts 128°
2026-05-04 23:50 32.61336 69.81482 37189 ft 529 kts 128°
2026-05-04 23:50 32.56831 69.88290 37124 ft 526 kts 128°
2026-05-04 23:51 32.52312 69.95116 37148 ft 530 kts 128°
2026-05-04 23:51 32.47799 70.01944 37031 ft 525 kts 128°
2026-05-04 23:52 32.43297 70.08765 37080 ft 528 kts 128°
2026-05-04 23:52 32.38779 70.15607 37047 ft 527 kts 128°
2026-05-04 23:53 32.34304 70.22427 36997 ft 524 kts 127°
2026-05-04 23:53 32.29848 70.29279 37022 ft 526 kts 128°
2026-05-04 23:54 32.25411 70.36041 36953 ft 524 kts 128°
2026-05-04 23:54 32.20975 70.42853 36982 ft 525 kts 127°
2026-05-04 23:55 32.16505 70.49726 36927 ft 525 kts 128°
2026-05-04 23:56 32.09887 70.59882 36951 ft 524 kts 127°
2026-05-04 23:56 32.05454 70.66711 36911 ft 524 kts 128°
2026-05-04 23:57 32.01044 70.73494 36919 ft 524 kts 128°
2026-05-04 23:57 31.96622 70.80307 36936 ft 523 kts 128°
2026-05-04 23:58 31.92282 70.87169 36877 ft 523 kts 125°
2026-05-04 23:58 31.88549 70.94527 36922 ft 526 kts 117°
2026-05-04 23:59 31.85192 71.02076 36895 ft 524 kts 117°
2026-05-04 23:59 31.81764 71.09632 36911 ft 524 kts 118°
2026-05-05 00:00 31.78316 71.17185 36896 ft 527 kts 118°
2026-05-05 00:00 31.74878 71.24723 36881 ft 527 kts 118°
2026-05-05 00:01 31.71433 71.32310 36916 ft 527 kts 118°
2026-05-05 00:01 31.68010 71.39887 36881 ft 528 kts 117°
2026-05-05 00:02 31.64564 71.47517 36913 ft 531 kts 117°
2026-05-05 00:02 31.61146 71.55094 36885 ft 528 kts 117°
2026-05-05 00:03 31.57707 71.62709 36919 ft 531 kts 118°
2026-05-05 00:03 31.54185 71.70257 36885 ft 529 kts 119°
2026-05-05 00:04 31.50671 71.77810 36888 ft 529 kts 118°
2026-05-05 00:04 31.47164 71.85422 36909 ft 532 kts 119°
2026-05-05 00:05 31.43652 71.93005 36919 ft 532 kts 119°
2026-05-05 00:05 31.40122 72.00652 36781 ft 531 kts 118°
2026-05-05 00:06 31.36666 72.08166 36875 ft 531 kts 119°
2026-05-05 00:06 31.33142 72.15810 36843 ft 533 kts 118°
2026-05-05 00:07 31.29657 72.23405 36841 ft 531 kts 118°
2026-05-05 00:07 31.27260 72.31493 36902 ft 533 kts 97°
2026-05-05 00:07 31.26993 72.35762 36892 ft 531 kts 86°
2026-05-05 00:08 31.27316 72.40060 36842 ft 525 kts 78°
2026-05-05 00:08 31.28530 72.48388 36854 ft 524 kts 77°
2026-05-05 00:09 31.29640 72.56826 36788 ft 525 kts 79°
2026-05-05 00:09 31.30576 72.65256 36857 ft 527 kts 80°
2026-05-05 00:10 31.31498 72.73735 36784 ft 525 kts 81°
2026-05-05 00:10 31.32437 72.82200 36868 ft 527 kts 80°
2026-05-05 00:11 31.33383 72.90614 36815 ft 525 kts 80°
2026-05-05 00:11 31.34335 72.99071 36865 ft 525 kts 80°
2026-05-05 00:12 31.35236 73.07516 36879 ft 525 kts 81°
2026-05-05 00:12 31.36090 73.15962 36850 ft 524 kts 81°
2026-05-05 00:13 31.36962 73.24429 36869 ft 525 kts 81°
2026-05-05 00:13 31.37843 73.32842 36851 ft 524 kts 81°
2026-05-05 00:14 31.38726 73.41272 36856 ft 524 kts 81°
2026-05-05 00:14 31.39623 73.49736 36862 ft 525 kts 81°
2026-05-05 00:15 31.40519 73.58186 37618 ft 524 kts 80°
2026-05-05 00:15 31.40967 73.62368 38246 ft 526 kts 80°
2026-05-05 00:15 31.41423 73.66605 38763 ft 530 kts 80°
2026-05-05 00:15 31.41892 73.70921 38897 ft 532 kts 81°
2026-05-05 00:16 31.42346 73.75158 38807 ft 525 kts 81°
2026-05-05 00:16 31.43193 73.83536 38930 ft 518 kts 81°
2026-05-05 00:17 31.44014 73.91903 38943 ft 527 kts 81°
2026-05-05 00:17 31.44631 74.00423 38863 ft 523 kts 89°
2026-05-05 00:18 31.43703 74.08845 38974 ft 526 kts 102°
2026-05-05 00:18 31.42054 74.17191 38907 ft 529 kts 102°
2026-05-05 00:19 31.40448 74.25523 38855 ft 523 kts 102°
2026-05-05 00:19 31.38886 74.33869 38931 ft 529 kts 102°
2026-05-05 00:20 31.37324 74.42220 38892 ft 528 kts 102°
2026-05-05 00:20 31.35744 74.50568 38865 ft 526 kts 104°
2026-05-05 00:20 31.34576 74.54623 38868 ft 526 kts 115°
2026-05-05 00:21 31.32834 74.58319 38956 ft 525 kts 126°
2026-05-05 00:21 31.30532 74.61649 38970 ft 523 kts 137°
2026-05-05 00:21 31.27914 74.64529 38957 ft 519 kts 141°
2026-05-05 00:22 31.22474 74.70069 38861 ft 517 kts 141°
2026-05-05 00:22 31.17185 74.75651 38864 ft 518 kts 140°
2026-05-05 00:23 31.11894 74.81433 38863 ft 520 kts 140°
2026-05-05 00:23 31.06662 74.87157 38866 ft 518 kts 140°
2026-05-05 00:24 31.01399 74.92889 38897 ft 518 kts 140°
2026-05-05 00:24 30.96149 74.98637 38844 ft 515 kts 140°
2026-05-05 00:25 30.90934 75.04338 38900 ft 518 kts 140°
2026-05-05 00:25 30.85691 75.10067 38843 ft 516 kts 140°
2026-05-05 00:26 30.80194 75.15303 38837 ft 508 kts 153°
2026-05-05 00:26 30.73746 75.18527 38923 ft 503 kts 167°
2026-05-05 00:27 30.67046 75.20832 38849 ft 502 kts 168°
2026-05-05 00:27 30.60401 75.23185 38826 ft 500 kts 167°
2026-05-05 00:28 30.53730 75.25642 38891 ft 504 kts 167°
2026-05-05 00:28 30.47063 75.28101 38836 ft 500 kts 167°
2026-05-05 00:29 30.40470 75.30516 38871 ft 503 kts 167°
2026-05-05 00:29 30.37066 75.31754 38356 ft 511 kts 167°
2026-05-05 00:29 30.33673 75.32996 37863 ft 511 kts 167°
2026-05-05 00:29 30.30294 75.34241 37445 ft 509 kts 167°
2026-05-05 00:30 30.26962 75.35468 37020 ft 508 kts 167°
2026-05-05 00:30 30.23581 75.36701 36564 ft 507 kts 166°
2026-05-05 00:30 30.20235 75.37923 36092 ft 507 kts 167°
2026-05-05 00:30 30.16869 75.39153 35617 ft 506 kts 166°
2026-05-05 00:31 30.13523 75.40382 35140 ft 506 kts 166°
2026-05-05 00:31 30.10144 75.41624 34675 ft 506 kts 166°
2026-05-05 00:31 30.06825 75.42840 34210 ft 506 kts 166°
2026-05-05 00:31 30.03480 75.44066 33751 ft 505 kts 166°
2026-05-05 00:32 30.00125 75.45292 33285 ft 505 kts 165°
2026-05-05 00:32 29.96792 75.46515 32829 ft 505 kts 166°
2026-05-05 00:32 29.93451 75.47738 32379 ft 504 kts 165°
2026-05-05 00:32 29.90105 75.48950 31932 ft 504 kts 166°
2026-05-05 00:33 29.86813 75.50367 31458 ft 508 kts 157°
2026-05-05 00:33 29.83725 75.52377 31021 ft 517 kts 147°
2026-05-05 00:33 29.80893 75.55032 30370 ft 530 kts 136°
2026-05-05 00:33 29.78378 75.58147 29743 ft 534 kts 131°
2026-05-05 00:34 29.75978 75.61392 29049 ft 538 kts 131°
2026-05-05 00:34 29.73575 75.64674 28364 ft 541 kts 131°
2026-05-05 00:34 29.71114 75.67970 27675 ft 543 kts 132°
2026-05-05 00:34 29.68603 75.71246 27000 ft 544 kts 133°
2026-05-05 00:35 29.66109 75.74453 26355 ft 544 kts 133°
2026-05-05 00:35 29.63586 75.77681 25677 ft 545 kts 133°
2026-05-05 00:35 29.61050 75.80927 24985 ft 545 kts 133°
2026-05-05 00:35 29.58513 75.84178 24294 ft 545 kts 133°
2026-05-05 00:36 29.56000 75.87408 23606 ft 545 kts 133°
2026-05-05 00:36 29.53482 75.90650 22981 ft 542 kts 133°
2026-05-05 00:36 29.51034 75.93808 22826 ft 530 kts 134°
2026-05-05 00:36 29.48605 75.96940 22691 ft 518 kts 134°
2026-05-05 00:37 29.46237 75.99995 22553 ft 508 kts 134°
2026-05-05 00:37 29.43906 76.02996 22412 ft 497 kts 133°
2026-05-05 00:37 29.41629 76.05928 21887 ft 497 kts 134°
2026-05-05 00:37 29.39351 76.08865 21296 ft 496 kts 133°
2026-05-05 00:38 29.36963 76.11736 20926 ft 488 kts 139°
2026-05-05 00:38 29.34424 76.14249 20436 ft 485 kts 142°
2026-05-05 00:38 29.31820 76.16692 19951 ft 482 kts 142°
2026-05-05 00:38 29.29244 76.19119 19515 ft 477 kts 142°
2026-05-05 00:39 29.26729 76.21542 18962 ft 474 kts 141°
2026-05-05 00:39 29.24242 76.23989 18516 ft 468 kts 140°
2026-05-05 00:39 29.21800 76.26411 17861 ft 465 kts 140°
2026-05-05 00:39 29.19379 76.28816 17328 ft 459 kts 140°
2026-05-05 00:40 29.16976 76.31200 16572 ft 457 kts 140°
2026-05-05 00:40 29.14574 76.33574 15845 ft 453 kts 139°
2026-05-05 00:40 29.12239 76.35880 15159 ft 447 kts 139°
2026-05-05 00:40 29.09884 76.38203 14313 ft 444 kts 139°
2026-05-05 00:41 29.07585 76.40475 13206 ft 437 kts 139°
2026-05-05 00:41 29.05317 76.42723 11792 ft 428 kts 139°
2026-05-05 00:41 29.03157 76.44866 10999 ft 400 kts 139°
2026-05-05 00:41 29.01134 76.46867 10363 ft 368 kts 139°
2026-05-05 00:42 28.99280 76.48698 9753 ft 339 kts 139°
2026-05-05 00:42 28.97580 76.50378 9371 ft 313 kts 139°
2026-05-05 00:42 28.95990 76.51950 9114 ft 291 kts 139°
2026-05-05 00:42 28.94461 76.53464 8316 ft 296 kts 139°
2026-05-05 00:43 28.92959 76.54951 8065 ft 276 kts 139°
2026-05-05 00:43 28.91555 76.56343 7940 ft 257 kts 139°
2026-05-05 00:43 28.90243 76.57644 7529 ft 253 kts 139°
2026-05-05 00:43 28.88876 76.58997 6723 ft 259 kts 139°
2026-05-05 00:44 28.87549 76.60310 6200 ft 252 kts 139°
2026-05-05 00:44 28.86233 76.61613 5530 ft 250 kts 139°
2026-05-05 00:44 28.84833 76.62708 4989 ft 240 kts 155°
2026-05-05 00:44 28.83318 76.63424 4850 ft 233 kts 159°
2026-05-05 00:45 28.81799 76.64033 4331 ft 229 kts 161°
2026-05-05 00:45 28.80312 76.64571 3913 ft 216 kts 162°
2026-05-05 00:45 28.78925 76.65048 3819 ft 202 kts 162°
2026-05-05 00:45 28.77605 76.65494 3811 ft 192 kts 162°
2026-05-05 00:46 28.76326 76.65927 3838 ft 190 kts 162°
2026-05-05 00:46 28.75049 76.66365 3859 ft 189 kts 162°
2026-05-05 00:46 28.73859 76.66915 3794 ft 180 kts 147°
2026-05-05 00:46 28.72868 76.67781 3850 ft 181 kts 137°
2026-05-05 00:47 28.71997 76.68760 3889 ft 180 kts 133°
2026-05-05 00:47 28.71151 76.69814 3947 ft 181 kts 131°
2026-05-05 00:47 28.70313 76.70907 3985 ft 183 kts 130°
2026-05-05 00:47 28.69490 76.71993 3976 ft 182 kts 130°
2026-05-05 00:48 28.68652 76.73096 3971 ft 182 kts 130°
2026-05-05 00:48 28.67819 76.74181 3978 ft 180 kts 131°
2026-05-05 00:48 28.66991 76.75251 3978 ft 180 kts 131°
2026-05-05 00:48 28.66162 76.76318 3987 ft 182 kts 131°
2026-05-05 00:49 28.65324 76.77394 3984 ft 181 kts 131°
2026-05-05 00:49 28.64488 76.78460 3981 ft 180 kts 131°
2026-05-05 00:49 28.63699 76.79586 3962 ft 179 kts 121°
2026-05-05 00:49 28.63181 76.80869 4000 ft 182 kts 109°
2026-05-05 00:50 28.62819 76.82250 3998 ft 182 kts 105°
2026-05-05 00:50 28.62503 76.83647 3972 ft 180 kts 105°
2026-05-05 00:50 28.62185 76.85017 3979 ft 179 kts 105°
2026-05-05 00:50 28.61869 76.86345 3922 ft 166 kts 106°
2026-05-05 00:51 28.61577 76.87576 3932 ft 160 kts 105°
2026-05-05 00:51 28.61283 76.88826 3955 ft 164 kts 105°
2026-05-05 00:51 28.60992 76.90058 3839 ft 159 kts 105°
2026-05-05 00:51 28.60712 76.91265 3676 ft 159 kts 105°
2026-05-05 00:52 28.60430 76.92481 3482 ft 158 kts 104°
2026-05-05 00:52 28.60152 76.93699 3283 ft 157 kts 105°
2026-05-05 00:52 28.59870 76.94880 3072 ft 155 kts 106°
2026-05-05 00:52 28.59570 76.96064 2899 ft 157 kts 105°
2026-05-05 00:53 28.59314 76.97257 2676 ft 154 kts 103°
2026-05-05 00:53 28.59070 76.98453 2502 ft 158 kts 105°
2026-05-05 00:53 28.58772 76.99644 2295 ft 154 kts 107°
2026-05-05 00:53 28.58472 77.00803 2105 ft 156 kts 106°
2026-05-05 00:54 28.58193 77.02001 1896 ft 155 kts 105°
2026-05-05 00:54 28.57963 77.03190 1706 ft 153 kts 102°
2026-05-05 00:54 28.57707 77.04352 1507 ft 151 kts 107°
2026-05-05 00:54 28.57414 77.05486 1294 ft 149 kts 105°
2026-05-05 00:55 28.57150 77.06628 1091 ft 149 kts 104°
2026-05-05 00:55 28.56881 77.07773 927 ft 149 kts 105°
2026-05-05 00:55 28.56634 77.08897 786 ft 139 kts 104°
2026-05-05 00:55 28.56429 77.09770 785 ft 76 kts 104°
2026-05-05 00:56 28.56347 77.10111 785 ft 19 kts 113°
2026-05-05 00:56 28.56320 77.10110 785 ft 2 kts 248°
2026-05-05 00:56 28.56309 77.10065 785 ft 10 kts 258°
2026-05-05 00:56 28.56281 77.09941 785 ft 21 kts 253°
2026-05-05 00:57 28.56239 77.09773 785 ft 17 kts 251°
2026-05-05 00:57 28.56187 77.09712 785 ft 9 kts 191°
2026-05-05 00:57 28.56112 77.09693 785 ft 13 kts 194°
2026-05-05 00:57 28.56019 77.09662 785 ft 10 kts 216°
2026-05-05 00:58 28.56024 77.09637 785 ft 2 kts 352°
2026-05-05 00:58 28.56031 77.09650 785 ft 2 kts 92°
2026-05-05 00:58 28.56006 77.09668 785 ft 7 kts 158°
2026-05-05 00:58 28.55953 77.09717 785 ft 11 kts 123°
2026-05-05 00:59 28.55939 77.09824 785 ft 16 kts 96°
2026-05-05 00:59 28.55907 77.09909 785 ft 6 kts 155°
2026-05-05 00:59 28.55853 77.09903 785 ft 9 kts 194°
2026-05-05 00:59 28.55832 77.09897 785 ft 0 kts 195°